FW2547 Weather Reports


Display with metric or nautical units.
time (UTC)temp
F
wind
direction
speed
MPH
gust
MPH
rain 1hr
in
rain 24hr
in
rain mn
in
humidity
%
barometer
mb
20260509200014 91 186 4.0 7.0 0.00 0.00 0.00 11 1006.4
20260509194512 91 238 6.0 9.0 0.00 0.00 0.00 10 1006.6
20260509193013 90 285 5.0 8.0 0.00 0.00 0.00 11 1006.8
20260509191507 89 266 1.0 8.0 0.00 0.00 0.00 13 1007.0
20260509190004 88 238 5.0 9.0 0.00 0.00 0.00 14 1007.2
20260509184559 87 306 1.0 8.0 0.00 0.00 0.00 15 1007.3
20260509183057 86 69 2.0 6.0 0.00 0.00 0.00 15 1007.7
20260509181559 85 97 0.0 5.0 0.00 0.00 0.00 16 1008.1
20260509180055 84 238 1.0 7.0 0.00 0.00 0.00 17 1008.2
20260509174547 83 210 0.0 4.0 0.00 0.00 0.00 17 1008.4
20260509173042 82 323 1.0 5.0 0.00 0.00 0.00 18 1008.6
20260509171542 80 180 3.0 6.0 0.00 0.00 0.00 18 1008.7
20260509170035 79 297 2.0 4.0 0.00 0.00 0.00 19 1008.8
20260509164531 78 223 3.0 5.0 0.00 0.00 0.00 20 1008.8
20260509163027 77 189 1.0 5.0 0.00 0.00 0.00 22 1008.7
20260509161523 76 180 1.0 4.0 0.00 0.00 0.00 24 1008.6
20260509160018 74 59 2.0 4.0 0.00 0.00 0.00 25 1008.6
20260509154518 73 116 1.0 4.0 0.00 0.00 0.00 27 1008.5
20260509153010 71 59 5.0 7.0 0.00 0.00 0.00 30 1008.6
20260509151504 70 119 1.0 4.0 0.00 0.00 0.00 32 1008.7
20260509150104 69 76 1.0 3.0 0.00 0.00 0.00 33 1008.8
20260509144556 68 77 2.0 4.0 0.00 0.00 0.00 36 1008.8
20260509143055 67 86 1.0 3.0 0.00 0.00 0.00 36 1008.8
20260509141548 67 86 0.0 2.0 0.00 0.00 0.00 36 1008.8
20260509140048 65 87 0.0 2.0 0.00 0.00 0.00 39 1008.7
20260509134555 64 87 1.0 3.0 0.00 0.00 0.00 39 1008.7
20260509133034 64 87 2.0 4.0 0.00 0.00 0.00 40 1008.5
20260509131544 63 96 0.0 4.0 0.00 0.00 0.00 41 1008.2
20260509130031 63 59 1.0 5.0 0.00 0.00 0.00 41 1007.9
20260509124523 62 58 4.0 5.0 0.00 0.00 0.00 41 1007.6
20260509123018 62 58 2.0 3.0 0.00 0.00 0.00 41 1007.5
20260509121523 62 57 0.0 2.0 0.00 0.00 0.00 42 1007.1
20260509120013 62 57 2.0 3.0 0.00 0.00 0.00 41 1007.0
20260509114522 62 58 1.0 4.0 0.00 0.00 0.00 41 1006.6
20260509113010 63 57 2.0 5.0 0.00 0.00 0.00 40 1006.6
20260509111508 64 57 1.0 3.0 0.00 0.00 0.00 38 1006.5
20260509110006 64 57 1.0 4.0 0.00 0.00 0.00 38 1006.5
20260509104506 64 58 3.0 5.0 0.00 0.00 0.00 38 1006.5
20260509103003 64 72 2.0 5.0 0.00 0.00 0.00 38 1006.3
20260509101501 65 72 3.0 6.0 0.00 0.00 0.00 37 1006.4
20260509100059 65 73 3.0 5.0 0.00 0.00 0.00 37 1006.3
20260509094558 65 74 3.0 5.0 0.00 0.00 0.00 36 1006.3
20260509093059 66 81 3.0 5.0 0.00 0.00 0.00 36 1006.2
20260509091555 66 65 3.0 8.0 0.00 0.00 0.00 35 1006.3
20260509090052 67 68 5.0 8.0 0.00 0.00 0.00 35 1006.3
20260509084551 67 58 4.0 6.0 0.00 0.00 0.00 35 1006.5
20260509083050 67 63 4.0 6.0 0.00 0.00 0.00 35 1006.4
20260509081550 68 64 5.0 8.0 0.00 0.00 0.00 33 1006.3
20260509080043 68 64 6.0 9.0 0.00 0.00 0.00 33 1006.4
20260509074553 68 60 7.0 10.0 0.00 0.00 0.00 33 1006.4
20260509073038 69 68 6.0 9.0 0.00 0.00 0.00 33 1006.5
20260509071536 69 57 5.0 7.0 0.00 0.00 0.00 32 1006.5
20260509070035 69 63 4.0 8.0 0.00 0.00 0.00 31 1006.7
20260509064540 70 63 4.0 6.0 0.00 0.00 0.00 31 1006.7
20260509063029 70 67 4.0 8.0 0.00 0.00 0.00 30 1006.8
20260509061528 71 74 2.0 6.0 0.00 0.00 0.00 29 1007.2
20260509060023 71 80 3.0 8.0 0.00 0.00 0.00 28 1006.8
20260509054523 72 59 4.0 5.0 0.00 0.00 0.00 27 1006.8
20260509053022 73 71 4.0 9.0 0.00 0.00 0.00 25 1006.8
20260509051524 75 116 6.0 12.0 0.00 0.00 0.00 21 1006.5
20260509050022 78 94 4.0 9.0 0.00 0.00 0.00 16 1006.5
20260509044520 78 211 2.0 3.0 0.00 0.00 0.00 15 1006.2
20260509043020 79 212 1.0 2.0 0.00 0.00 0.00 16 1006.3
20260509041520 79 212 0.0 3.0 0.00 0.00 0.00 15 1006.1
20260509040019 79 210 2.0 3.0 0.00 0.00 0.00 15 1006.0
20260509034536 80 207 3.0 6.0 0.00 0.00 0.00 15 1005.8
20260509033018 81 205 2.0 4.0 0.00 0.00 0.00 14 1005.7
20260509031517 81 206 2.0 4.0 0.00 0.00 0.00 13 1005.5
20260509030020 83 182 2.0 4.0 0.00 0.00 0.00 12 1005.3
20260509024516 83 173 4.0 7.0 0.00 0.00 0.00 12 1005.2
20260509023015 84 169 4.0 6.0 0.00 0.00 0.00 12 1004.9
20260509021517 85 259 1.0 3.0 0.00 0.00 0.00 10 1004.7
20260509020014 86 259 1.0 8.0 0.00 0.00 0.00 10 1004.6
20260509014515 87 296 6.0 9.0 0.00 0.00 0.00 9 1004.5
20260509013013 87 317 6.0 12.0 0.00 0.00 0.00 9 1004.3
20260509011513 87 360 4.0 11.0 0.00 0.00 0.00 9 1004.2
20260509010012 88 36 2.0 6.0 0.00 0.00 0.00 9 1004.2
20260509004510 87 341 8.0 15.0 0.00 0.00 0.00 9 1004.3
20260509003009 87 30 5.0 15.0 0.00 0.00 0.00 9 1004.4
20260509001508 87 12 7.0 12.0 0.00 0.00 0.00 9 1004.3
20260509000107 87 291 6.0 19.0 0.00 0.00 0.00 9 1004.5
20260508234506 87 311 10.0 15.0 0.00 0.00 0.00 9 1004.4
20260508233004 87 294 11.0 18.0 0.00 0.00 0.00 9 1004.6
20260508231504 87 286 11.0 16.0 0.00 0.00 0.00 9 1004.7
20260508230100 86 312 4.0 16.0 0.00 0.00 0.00 9 1004.9
20260508224559 87 312 7.0 14.0 0.00 0.00 0.00 9 1004.8
20260508223057 86 291 2.0 14.0 0.00 0.00 0.00 8 1004.9
20260508221555 86 342 11.0 19.0 0.00 0.00 0.00 8 1005.0
20260508220052 86 5 4.0 15.0 0.00 0.00 0.00 9 1005.1
20260508214602 85 216 1.0 9.0 0.00 0.00 0.00 11 1005.2
20260508213046 85 150 11.0 17.0 0.00 0.00 0.00 11 1005.4
20260508211542 85 334 2.0 11.0 0.00 0.00 0.00 12 1005.5
20260508210041 85 347 3.0 14.0 0.00 0.00 0.00 13 1005.7
20260508204538 84 88 2.0 6.0 0.00 0.00 0.00 11 1006.0
20260508203036 84 84 10.0 13.0 0.00 0.00 0.00 11 1006.1
20260508201533 85 136 6.0 11.0 0.00 0.00 0.00 12 1006.3